Terminal Aerodrome Forecast
Issued by NWS

Home | Current Version | Previous Version | Text Only | Print | Product List | Glossary On
Versions: 1 2 3 4 5 6 7 8 9 10 11 12 13 14 15 16 17
000
FTUS45 KFGZ 310226 AAA
TAFSEZ
TAF AMD
KSEZ 310226Z 3102/3124 VRB06KT P6SM VCTS SCT080CB SCT120
      TEMPO 3102/3104 VRB10G20KT 6SM -TSRA OVC060CB
     FM310400 VRB05KT P6SM SCT070
     FM310600 04008KT P6SM FEW080=

USA.gov is the U.S. government's official web portal to all federal, state and local government web resources and services.